General Leobardo C Ruiz International Airport
MMZC : now visible

Airfield :











YOU CAN JOIN US ON...

 
LOGIN :

Register | Disclaimer

   EN    FR    IT 

 









Legend :    VFR   Marginal VFR   IFR   Intensive IFR   Very Intensive IFR
Visi :
Ceiling :
>= 8 km
>= 3000ft
5 to 8 km
1000 to 3000 ft
1500m to 5 km
500 to 1000 ft
800 to 1500m
200 to 500 ft
< 800m
< 200 ft
Symbols :   Thunderstorms  Fog  Heavy snow  Heavy precipitations  Wind > 20 kt






- Airport Elevation : 7141 ft
- IATA code : ZCL


MMZC - General Leobardo C Ruiz International

CURRENT METAR :
  • 191941Z 06006KT 10SM BKN020 20/12 A3025 RMK 8/100 CB DSNT AT E

EXPIRED METARs :
  • 191840Z 07008KT 10SM SCT020 SCT080 20/12 A3028 RMK 8/130
  • 191740Z 06007KT 10SM BKN020 BKN070 18/12 A3030 RMK 8/190

TAF TAF MMZC
Valid from the 19 at 18:00 until the 21 at 00:00 UTC


191652Z 1918/2024 06012KT P6SM BKN025 TX22/1922Z TN14/2012Z
TEMPO 1921/2001 5SM RA
FM200300 04010KT P6SM BKN025
FM201800 12012KT P6SM SCT030
MMFR FIR / North America



MET'MAP, your aeronautical weather chart ! - Copyright ORBIFLY December 2007 - Disclaimer

ORBIFLY MET'MAP TEAM :

Programming & Development : Alexandra Zaïnal
Concept & original design : Baudouin d'Aumeries
Assistance for programming : Marc-Olivier Méhu
Technical & hardware support : Manuel Goepfert

Contact : metmap@orbifly.com




SOURCES & CREDITS :

   NOAA       Earth
Advisory